Regional Weather Roundup
Issued by NWS

Home | Current Version | Previous Version | Graphics & Text | Print | Product List | Glossary On
Versions: 1 2 3 4 5 6 7 8 9 10 11 12 13 14 15 16 17 18 19 20 21 22 23 24 25 26 27 28 29 30 31 32 33 34 35 36 37 38 39 40 41 42 43 44 45 46 47 48 49 50
000
ASUS43 KDMX 310207
RWRIA

WEATHER ROUNDUP FOR IOWA
NATIONAL WEATHER SERVICE DES MOINES IA
800 PM CST FRI JAN 30 2015

NOTE: "FAIR" INDICATES FEW OR NO CLOUDS BELOW 12,000 FEET WITH NO
SIGNIFICANT WEATHER AND/OR OBSTRUCTIONS TO VISIBILITY.

* - THESE STATIONS ARE NOT NWS STATIONS...THUS NOT UNDER NWS
QUALITY CONTROL.  THEY ALSO DO NOT REPORT WEATHER SUCH
AS PRECIPITATION OR FOG.

IAZ001>003-012>014-020>022-031>034-043>046-310300-
   NORTHWEST IOWA

CITY           SKY/WX    TMP DP  RH WIND       PRES   REMARKS
CARROLL *      CLEAR     28  23  80 S10       30.27F WCI  19
CHEROKEE *     CLEAR     30  27  86 S9        30.23S WCI  22
DENISON *      CLEAR     30  25  80 S13G20    30.25F WCI  20
LE MARS *      CLEAR     32  27  80 S10       30.23R WCI  24
ORANGE CITY *  CLEAR     30  25  80 S7        30.22R WCI  23
SHELDON *      CLEAR     30  27  86 S14       30.20R WCI  20
SIOUX CITY     CLEAR     32  25  75 SE8       30.24F WCI  25
SPENCER        CLEAR     30  24  78 S12       30.21F WCI  20
STORM LAKE *   CLEAR     28  25  86 S17       30.22F WCI  16
$$

IAZ055>058-069>071-079>083-090>094-310300-
   SOUTHWEST IOWA

CITY           SKY/WX    TMP DP  RH WIND       PRES   REMARKS
ATLANTIC *     CLOUDY    32  21  64 S13       30.30F WCI  22
AUDUBON *      CLEAR     28  21  74 S8        30.29F WCI  20
CLARINDA *     PTCLDY    27  19  74 S8        30.36F WCI  18
COUNCIL BLFS * CLOUDY    32  25  74 S12       30.28F WCI  23
CRESTON *      MOCLDY    28  19  69 S9        30.33F WCI  20
HARLAN  *      CLOUDY    30  25  80 S10       30.32F WCI  21
LAMONI         MOCLDY    28  16  60 S9        30.35F WCI  19
RED OAK *      CLOUDY    28  21  74 S7        30.33F WCI  21
SHENANDOAH *   PTCLDY    30  21  69 SE10      30.34F WCI  21
$$

IAZ047>049-059>061-072>074-084-310300-
   CENTRAL IOWA

CITY           SKY/WX    TMP DP  RH WIND       PRES   REMARKS
AMES           CLEAR     26  16  65 S8        30.31F WCI  18
ANKENY *       CLEAR     27  16  63 S6        30.33F WCI  20
CHARITON *     CLEAR     27  18  69 S8        30.34F WCI  18
DES MOINES       N/A     29  15  56 S7        30.33F WCI  22
GRINNELL*      CLEAR     27  18  69 S7        30.33F WCI  19
KNOXVILLE *    CLEAR     28  14  54 S6        30.33F WCI  22
MARSHALLTOWN   CLEAR     25  15  66 SE9       30.30F WCI  15
PELLA *        CLEAR     28  18  64 S6        30.36F WCI  22
PERRY *          N/A     28  23  80 S9        30.30F WCI  20
$$

IAZ004>006-015-016-023>025-035-036-310300-
   NORTH CENTRAL IOWA

CITY           SKY/WX    TMP DP  RH WIND       PRES   REMARKS
ALGONA *       CLEAR     28  25  86 S13       30.24F WCI  18
CLARION *      CLEAR     28  23  80 S14       30.26F WCI  17
ESTHERVILLE    CLEAR     30  24  78 S17       30.19F WCI  18
FORT DODGE *   CLEAR     30  18  59 S12       30.26F WCI  21
MASON CITY     CLEAR     24  19  81 S10       30.26F WCI  14
FOREST CITY *  CLEAR     27  19  74 S7        30.24F WCI  19
IOWA FALLS *     N/A     27  19  74 S9        30.29F WCI  17
$$

IAZ007>011-017>019-026>030-037>042-050>054-066-310300-
   NORTHEAST IOWA

CITY           SKY/WX    TMP DP  RH WIND       PRES   REMARKS
CEDAR RAPIDS   CLEAR     23  15  71 S3        30.34F
CHARLES CITY * CLEAR     23  16  74 S12       30.28F WCI  12
CLINTON *      CLEAR     19  12  73 SE3       30.41F
DECORAH *      CLEAR     23  10  58 S6        30.29F WCI  16
DUBUQUE        CLEAR     18  13  80 SW6       30.34F WCI  10
MONTICELLO *   CLEAR     23  18  80 S8        30.36F WCI  14
OELWEIN *      CLEAR     21  16  79 S9        30.32F WCI  11
WATERLOO       CLEAR     24  15  68 S7        30.32F WCI  16
$$

IAZ064-065-067-068-078-310300-
   EAST CENTRAL IOWA

CITY           SKY/WX    TMP DP  RH WIND       PRES   REMARKS
DAVENPORT      CLEAR     21  15  78 S6        30.39F WCI  13
IOWA CITY      CLEAR     23  16  74 CALM      30.39F
MT. PLEASANT * CLEAR     25  19  80 S6        30.39F WCI  18
MUSCATINE *    CLEAR     25  19  80 CALM      30.40F
QUAD CITIES      N/A     22  17  81 S3        30.39F
$$

IAZ062-063-075>077-085>089-095>099-310300-
   SOUTHEAST IOWA

CITY           SKY/WX    TMP DP  RH WIND       PRES   REMARKS
BURLINGTON     CLEAR     26  18  71 S6        30.39F WCI  19
FAIRFIELD *    CLEAR     28  18  64 S8        30.37F WCI  20
FORT MADISON * CLEAR     27  19  74 S6        30.40F WCI  20
KEOKUK *       CLEAR     28  18  64 CALM      30.40F
OSKALOOSA *      N/A     23  18  80 S7        30.35F WCI  15
CENTERVILLE *    N/A     25  18  74 S7        30.38S WCI  17
OTTUMWA        CLEAR     25  16  68 S7        30.35F WCI  17
WASHINGTON *   CLEAR     25  19  80 S7        30.37F WCI  17
$$

ABBREVIATIONS USED IN REMARKS
   TC - TEMPERATURES IN CELSIUS
  WCI - WIND CHILL INDEX
   HX - HEAT INDEX
  VSB - VISIBILITY
$$




USA.gov is the U.S. government's official web portal to all federal, state and local government web resources and services.